User: anonymous   Login
Location: Unspecified
(0.0000°N, 0.0000°E)
Time: 04:21:33
(UTC+00:00)
Language:

CUTE 1.7 + AOD 2 - Orbit

View from above orbital plane
View from above orbital plane
View from above satellite
View from above satellite

Ground track
Ground track

The orbit data is extracted from the following two-line orbital elements,

1 32785U 08021C   14351.09816572  .00002082  00000-0  24347-3 0  1423
2 32785 097.6765 036.2032 0012373 311.0589 107.6287 14.86074019359183
Epoch (UTC): 17 December 2014 02:21:21
Eccentricity: 0.0012373
inclination: 97.6765°
perigee height: 601 km
apogee height: 619 km
right ascension of ascending node: 36.2032°
argument of perigee: 311.0589°
revolutions per day: 14.86074019
mean anomaly at epoch: 107.6287°
orbit number at epoch: 35918

The dashed part of the orbit path shows where the satellite is in the earth's shadow,  

DLR